This is the latest recevied weather packets stored in our database for station/object N4QEP-13. If no packets are shown the sender has not sent any weather packets the latest 10 day(s).
| Time | Temp. | Humidity | Pressure | Rain* | Wind** | Luminosity | Snow |
|---|---|---|---|---|---|---|---|
| 1778014854 | 26.11° C | 54% | 1014.7 hPa | 0 mm | - | - | - |
| 1778013953 | 26.67° C | 52% | 1014.7 hPa | 0 mm | - | - | - |
| 1778013048 | 26.67° C | 54% | 1015.1 hPa | 0 mm | - | - | - |
| 1778012148 | 26.67° C | 54% | 1015.1 hPa | 0 mm | - | - | - |
| 1778011246 | 27.22° C | 52% | 1015.3 hPa | 0 mm | - | - | - |
| 1778010346 | 27.22° C | 50% | 1015.2 hPa | 0 mm | - | - | - |
| 1778009442 | 26.11° C | 53% | 1015.3 hPa | 0 mm | - | - | - |
| 1778008548 | 26.11° C | 54% | 1015.5 hPa | 0 mm | - | - | - |
| 1778007639 | 26.67° C | 54% | 1015.6 hPa | 0 mm | - | - | - |
| 1778006737 | 26.11° C | 54% | 1015.8 hPa | 0 mm | - | - | - |
| 1778005840 | 26.11° C | 55% | 1016 hPa | 0 mm | - | - | - |
| 1778004936 | 26.11° C | 55% | 1016.2 hPa | 0 mm | - | - | - |
| 1778004011 | 26.11° C | 54% | 1016 hPa | 0 mm | - | - | - |
| 1778003106 | 26.11° C | 56% | 1016.1 hPa | 0 mm | - | - | - |
| 1778002203 | 26.11° C | 55% | 1015.8 hPa | 0 mm | - | - | - |
| 1778001301 | 26.67° C | 55% | 1016 hPa | 0 mm | - | - | - |
| 1778000461 | 26.11° C | 55% | 1016.1 hPa | 0 mm | - | - | - |
| 1777999559 | 26.67° C | 54% | 1016.1 hPa | 0 mm | - | - | - |
| 1777998654 | 26.11° C | 55% | 1016.3 hPa | 0 mm | - | - | - |
| 1777997755 | 25° C | 55% | 1016.5 hPa | 0 mm | - | - | - |
| 1777996851 | 25° C | 54% | 1016.6 hPa | 0 mm | - | - | - |
| 1777995972 | 25° C | 52% | 1016.6 hPa | 0 mm | - | - | - |
| 1777995050 | 24.44° C | 51% | 1016.5 hPa | 0 mm | - | - | - |
| 1777995049 | 24.44° C | 51% | 1016.5 hPa | 0 mm | - | - | - |
| 1777994144 | 24.44° C | 51% | 1016.3 hPa | 0 mm | - | - | - |
* Rain latest hour (hover to see other rain measurements)
** Current wind speed in m/s (hover to see current wind gust speed)